• In Uzbekistan
  • List of Countries
  • For 7 days
  • Water Temperature
  • Satellite Maps
  • Weather Map
  • Weather Widgets
  • user-avatar
    Login

    Hourly Weather Biatris

    Today, 23 November, Thursday

    Time Temperature Precipitation Wind Pressure Humidity
    00:00 +24°C° 0 mm 2 mps 652 mmHg 62%
    01:00 +24°C° 0 mm 2 mps 652 mmHg 63%
    02:00 +23°C° 0 mm 2 mps 652 mmHg 64%
    03:00 +23°C° 0 mm 2 mps 652 mmHg 65%
    04:00 +23°C° 0 mm 2 mps 652 mmHg 66%
    05:00 +21°C° 0 mm 2 mps 652 mmHg 68%
    06:00 +23°C° 0 mm 2 mps 652 mmHg 64%
    07:00 +25°C° 0 mm 3 mps 653 mmHg 61%
    08:00 +26°C° 0 mm 3 mps 654 mmHg 57%
    09:00 +26°C° 0.4 mm 3 mps 654 mmHg 57%
    10:00 +27°C° 0.4 mm 3 mps 654 mmHg 56%
    11:00 +27°C° 0.4 mm 2 mps 654 mmHg 56%
    12:00 +27°C° 1.5 mm 2 mps 653 mmHg 56%
    13:00 +27°C° 1.5 mm 2 mps 653 mmHg 56%
    14:00 +27°C° 1.5 mm 2 mps 653 mmHg 56%
    15:00 +27°C° 1.3 mm 2 mps 653 mmHg 58%
    16:00 +26°C° 1.3 mm 2 mps 652 mmHg 61%
    17:00 +25°C° 1.3 mm 3 mps 652 mmHg 63%
    18:00 +24°C° 0.3 mm 2 mps 652 mmHg 67%
    19:00 +23°C° 0.3 mm 2 mps 653 mmHg 71%
    20:00 +21°C° 0.3 mm 2 mps 653 mmHg 76%
    21:00 +21°C° 0.1 mm 2 mps 653 mmHg 77%
    22:00 +21°C° 0.1 mm 2 mps 653 mmHg 78%
    23:00 +21°C° 0.1 mm 2 mps 654 mmHg 79%

    Tomorrow, 24 November, Friday

    Time Temperature Precipitation Wind Pressure Humidity
    00:00 +21°C° 0.1 mm 2 mps 653 mmHg 80%
    01:00 +20°C° 0.1 mm 2 mps 653 mmHg 81%
    02:00 +20°C° 0.1 mm 2 mps 652 mmHg 82%
    03:00 +20°C° 0 mm 2 mps 652 mmHg 83%
    04:00 +19°C° 0 mm 2 mps 652 mmHg 83%
    05:00 +19°C° 0 mm 2 mps 652 mmHg 84%
    06:00 +20°C° 0 mm 3 mps 653 mmHg 77%
    07:00 +22°C° 0 mm 3 mps 654 mmHg 71%
    08:00 +24°C° 0 mm 3 mps 654 mmHg 64%
    09:00 +26°C° 0.3 mm 3 mps 655 mmHg 58%
    10:00 +28°C° 0.3 mm 2 mps 655 mmHg 53%
    11:00 +29°C° 0.3 mm 2 mps 655 mmHg 48%
    12:00 +29°C° 1.2 mm 1 mps 654 mmHg 50%
    13:00 +28°C° 1.2 mm 1 mps 653 mmHg 52%
    14:00 +28°C° 1.2 mm 1 mps 652 mmHg 54%
    15:00 +27°C° 0.8 mm 1 mps 652 mmHg 56%
    16:00 +27°C° 0.8 mm 1 mps 652 mmHg 58%
    17:00 +26°C° 0.8 mm 1 mps 652 mmHg 60%
    18:00 +25°C° 0 mm 1 mps 652 mmHg 64%
    19:00 +24°C° 0 mm 1 mps 652 mmHg 68%
    20:00 +23°C° 0 mm 2 mps 652 mmHg 71%
    21:00 +23°C° 0 mm 1 mps 652 mmHg 72%
    22:00 +22°C° 0 mm 1 mps 652 mmHg 73%
    23:00 +22°C° 0 mm 1 mps 652 mmHg 74%

    Day after tomorrow, 25 November, Saturday

    Time Temperature Precipitation Wind Pressure Humidity
    00:00 +22°C° 0 mm 1 mps 651 mmHg 75%
    01:00 +21°C° 0 mm 1 mps 651 mmHg 77%
    02:00 +21°C° 0 mm 1 mps 651 mmHg 79%
    03:00 +20°C° 0 mm 1 mps 651 mmHg 81%
    04:00 +20°C° 0 mm 1 mps 651 mmHg 83%
    05:00 +20°C° 0 mm 1 mps 651 mmHg 85%
    06:00 +22°C° 0 mm 1 mps 652 mmHg 78%
    07:00 +23°C° 0 mm 2 mps 653 mmHg 72%
    08:00 +25°C° 0 mm 3 mps 653 mmHg 66%
    09:00 +27°C° 0.2 mm 2 mps 654 mmHg 59%
    10:00 +28°C° 0.2 mm 2 mps 654 mmHg 53%
    11:00 +30°C° 0.2 mm 2 mps 654 mmHg 47%
    12:00 +30°C° 0.2 mm 1 mps 653 mmHg 46%
    13:00 +29°C° 0.2 mm 1 mps 652 mmHg 46%
    14:00 +29°C° 0.2 mm 1 mps 651 mmHg 45%
    15:00 +28°C° 0.6 mm 1 mps 651 mmHg 51%
    16:00 +27°C° 0.6 mm 1 mps 650 mmHg 56%
    17:00 +26°C° 0.6 mm 2 mps 650 mmHg 61%
    18:00 +25°C° 1.4 mm 2 mps 650 mmHg 66%
    19:00 +24°C° 1.4 mm 2 mps 651 mmHg 71%
    20:00 +23°C° 1.4 mm 2 mps 651 mmHg 76%
    21:00 +23°C° 1.9 mm 2 mps 652 mmHg 78%
    22:00 +21°C° 1.9 mm 2 mps 652 mmHg 79%
    23:00 +21°C° 1.9 mm 2 mps 652 mmHg 81%

    26 November, Sunday

    Time Temperature Precipitation Wind Pressure Humidity
    00:00 +21°C° 0.4 mm 2 mps 651 mmHg 82%
    01:00 +21°C° 0.4 mm 2 mps 651 mmHg 83%
    02:00 +20°C° 0.4 mm 2 mps 650 mmHg 84%
    03:00 +20°C° 0 mm 3 mps 650 mmHg 85%
    04:00 +20°C° 0 mm 3 mps 651 mmHg 85%
    05:00 +20°C° 0 mm 3 mps 651 mmHg 86%
    06:00 +21°C° 0.8 mm 3 mps 651 mmHg 82%
    07:00 +22°C° 0.8 mm 3 mps 652 mmHg 77%
    08:00 +24°C° 0.8 mm 3 mps 653 mmHg 73%
    09:00 +25°C° 2.1 mm 3 mps 653 mmHg 70%
    10:00 +26°C° 2.1 mm 3 mps 653 mmHg 66%
    11:00 +27°C° 2.1 mm 3 mps 653 mmHg 62%
    12:00 +26°C° 2.8 mm 2 mps 652 mmHg 66%
    13:00 +25°C° 2.8 mm 2 mps 651 mmHg 70%
    14:00 +24°C° 2.8 mm 2 mps 651 mmHg 74%
    15:00 +24°C° 1.6 mm 2 mps 651 mmHg 75%
    16:00 +24°C° 1.6 mm 1 mps 651 mmHg 76%
    17:00 +24°C° 1.6 mm 1 mps 651 mmHg 77%
    18:00 +23°C° 0.1 mm 2 mps 651 mmHg 79%
    19:00 +21°C° 0.1 mm 2 mps 651 mmHg 81%
    20:00 +21°C° 0.1 mm 3 mps 651 mmHg 83%
    21:00 +20°C° 0.5 mm 2 mps 652 mmHg 84%
    22:00 +20°C° 0.5 mm 2 mps 652 mmHg 86%
    23:00 +21°C° 0.5 mm 1 mps 653 mmHg 87%

    27 November, Monday

    Time Temperature Precipitation Wind Pressure Humidity
    00:00 +21°C° 0.7 mm 1 mps 652 mmHg 88%
    01:00 +20°C° 0.7 mm 1 mps 652 mmHg 90%
    02:00 +20°C° 0.7 mm 1 mps 651 mmHg 91%
    03:00 +20°C° 0.6 mm 1 mps 651 mmHg 91%
    04:00 +20°C° 0.6 mm 1 mps 652 mmHg 91%
    05:00 +20°C° 0.6 mm 1 mps 652 mmHg 91%
    06:00 +21°C° 0.9 mm 1 mps 652 mmHg 88%
    07:00 +21°C° 0.9 mm 2 mps 653 mmHg 85%
    08:00 +21°C° 0.9 mm 2 mps 654 mmHg 82%
    09:00 +23°C° 1.2 mm 2 mps 654 mmHg 77%
    10:00 +24°C° 1.2 mm 2 mps 654 mmHg 71%
    11:00 +25°C° 1.2 mm 2 mps 654 mmHg 66%
    12:00 +25°C° 1.4 mm 2 mps 654 mmHg 69%
    13:00 +24°C° 1.4 mm 2 mps 653 mmHg 71%
    14:00 +24°C° 1.4 mm 2 mps 653 mmHg 73%
    15:00 +22°C° 1.3 mm 3 mps 652 mmHg 77%
    16:00 +21°C° 1.3 mm 3 mps 652 mmHg 81%
    17:00 +21°C° 1.3 mm 3 mps 652 mmHg 84%
    18:00 +20°C° 0.3 mm 4 mps 653 mmHg 85%
    19:00 +19°C° 0.3 mm 4 mps 653 mmHg 85%
    20:00 +19°C° 0.3 mm 5 mps 653 mmHg 85%
    21:00 +19°C° 0 mm 5 mps 653 mmHg 85%
    22:00 +17°C° 0 mm 5 mps 653 mmHg 86%
    23:00 +17°C° 0 mm 5 mps 654 mmHg 87%

    28 November, Tuesday

    Time Temperature Precipitation Wind Pressure Humidity
    00:00 +17°C° 0 mm 5 mps 653 mmHg 87%
    01:00 +17°C° 0 mm 4 mps 653 mmHg 88%
    02:00 +17°C° 0 mm 4 mps 652 mmHg 89%
    03:00 +17°C° 0 mm 4 mps 653 mmHg 89%
    04:00 +17°C° 0 mm 3 mps 653 mmHg 89%
    05:00 +17°C° 0 mm 3 mps 653 mmHg 88%
    06:00 +18°C° 0 mm 4 mps 654 mmHg 84%
    07:00 +18°C° 0 mm 4 mps 654 mmHg 80%
    08:00 +19°C° 0 mm 4 mps 655 mmHg 76%
    09:00 +21°C° 0 mm 4 mps 655 mmHg 69%
    10:00 +23°C° 0 mm 4 mps 655 mmHg 62%
    11:00 +26°C° 0 mm 3 mps 655 mmHg 55%
    12:00 +26°C° 0 mm 3 mps 654 mmHg 54%
    13:00 +26°C° 0 mm 2 mps 654 mmHg 53%
    14:00 +27°C° 0 mm 2 mps 653 mmHg 52%
    15:00 +26°C° 0.1 mm 2 mps 653 mmHg 55%
    16:00 +25°C° 0.1 mm 2 mps 653 mmHg 57%
    17:00 +25°C° 0.1 mm 3 mps 653 mmHg 59%
    18:00 +22°C° 0 mm 3 mps 653 mmHg 65%
    19:00 +21°C° 0 mm 3 mps 653 mmHg 70%
    20:00 +19°C° 0 mm 3 mps 653 mmHg 75%
    21:00 +19°C° 0 mm 3 mps 653 mmHg 77%
    22:00 +18°C° 0 mm 2 mps 653 mmHg 79%
    23:00 +18°C° 0 mm 2 mps 653 mmHg 80%
    Show more